Tracking 19279 objects as of 14-Nov-2018
HD Live streaming from Space Station
objects crossing your sky now

FLOCK 3P 11

Track FLOCK 3P 11 now!
10-day predictions
FLOCK 3P 11 is classified as:


NORAD ID: 41975
Int'l Code: 2017-008AD
Perigee: 492.7 km
Apogee: 504.3 km
Inclination: 97.4 °
Period: 94.4 minutes
Semi major axis: 6869 km
RCS: Unknown
Launch date: February 15, 2017
Source: United States (US)
Launch site: SRIHARIKOTA (SRI)
aabbcc
Your satellite tracking list
Your tracking list is empty




NASA's NSSDC Master Catalog

Two Line Element Set (TLE):
1 41975U 17008AD  18317.79719062  .00001163  00000-0  49767-4 0  9991
2 41975  97.4345  21.7010 0008417 174.5465 185.5865 15.24813520 96591
Source of the keplerian elements: AFSPC